Location: Mahannah Oil Field
(37.4664°N, 96.6003°W)
Time: 05:05:25
(UTC+00:00)

Courier 1B Rocket - Pass Details

Date: 24 January 2021
Orbit: 920 x 1202 km, 28.3° (Epoch: 05 March)

Event Time Altitude Azimuth Distance (km) Brightness Sun altitude
Rises 12:47:38 0° 232° (SW) 3,658 7.7 -9.7°
Reaches altitude 10° 12:50:34 10° 221° (SW) 2,752 7.1 -9.2°
Maximum altitude 12:56:12 29° 163° (SSE) 1,795 6.8 -8.1°
Drops below altitude 10° 13:02:12 10° 106° (ESE) 2,933 9.3 -7.0°
Sets 13:05:25 0° 96° (E) 3,939 10.2 -6.4°
